When you browse on this site, cookies collect data to enhance your experience and personalize the content and advertising you see.
Visit our Privacy Policy to learn more. By continuing to use the site, you agree to this use of cookies and data.
  • In Netherlands
  • List of Countries
  • For 7 days
  • Water Temperature
  • Satellite Maps
  • Weather Map
  • Weather Widgets
  • user-avatar
    Login

    Hourly Weather São Paulo

    Today, 19 July, Friday

    Time Temperature Precipitation Wind Pressure Humidity
    00:00 +14°C° 0 mm 2 mps 704 mmHg 86%
    01:00 +13°C° 0 mm 3 mps 704 mmHg 86%
    02:00 +12°C° 0 mm 3 mps 704 mmHg 87%
    03:00 +12°C° 0 mm 3 mps 704 mmHg 87%
    04:00 +12°C° 0 mm 3 mps 704 mmHg 87%
    05:00 +12°C° 0 mm 2 mps 704 mmHg 87%
    06:00 +12°C° 0 mm 2 mps 704 mmHg 88%
    07:00 +13°C° 0 mm 2 mps 704 mmHg 83%
    08:00 +13°C° 0 mm 3 mps 705 mmHg 78%
    09:00 +14°C° 0 mm 3 mps 705 mmHg 73%
    10:00 +17°C° 0 mm 2 mps 705 mmHg 64%
    11:00 +19°C° 0 mm 2 mps 705 mmHg 56%
    12:00 +21°C° 0 mm 1 mps 705 mmHg 48%
    13:00 +22°C° 0 mm 1 mps 705 mmHg 45%
    14:00 +23°C° 0 mm 1 mps 705 mmHg 42%
    15:00 +24°C° 0 mm 1 mps 704 mmHg 39%
    16:00 +22°C° 0 mm 1 mps 704 mmHg 47%
    17:00 +21°C° 0 mm 1 mps 704 mmHg 55%
    18:00 +19°C° 0 mm 1 mps 703 mmHg 63%
    19:00 +19°C° 0 mm 1 mps 704 mmHg 65%
    20:00 +19°C° 0 mm 1 mps 704 mmHg 67%
    21:00 +18°C° 0 mm 1 mps 704 mmHg 69%
    22:00 +18°C° 0 mm 1 mps 704 mmHg 69%
    23:00 +16°C° 0 mm 1 mps 704 mmHg 70%

    Tomorrow, 20 July, Saturday

    Time Temperature Precipitation Wind Pressure Humidity
    00:00 +16°C° 0 mm 1 mps 703 mmHg 70%
    01:00 +16°C° 0 mm 1 mps 703 mmHg 70%
    02:00 +15°C° 0 mm 1 mps 703 mmHg 69%
    03:00 +15°C° 0 mm 1 mps 703 mmHg 68%
    04:00 +15°C° 0 mm 1 mps 703 mmHg 69%
    05:00 +14°C° 0 mm 1 mps 703 mmHg 70%
    06:00 +14°C° 0 mm 1 mps 703 mmHg 71%
    07:00 +15°C° 0 mm 1 mps 703 mmHg 67%
    08:00 +16°C° 0 mm 1 mps 704 mmHg 63%
    09:00 +18°C° 0 mm 1 mps 704 mmHg 59%
    10:00 +20°C° 0 mm 1 mps 704 mmHg 53%
    11:00 +22°C° 0 mm 1 mps 705 mmHg 47%
    12:00 +24°C° 0 mm 1 mps 705 mmHg 40%
    13:00 +24°C° 0 mm 1 mps 704 mmHg 39%
    14:00 +24°C° 0 mm 1 mps 704 mmHg 37%
    15:00 +24°C° 0 mm 2 mps 703 mmHg 36%
    16:00 +23°C° 0 mm 2 mps 703 mmHg 42%
    17:00 +21°C° 0 mm 2 mps 703 mmHg 48%
    18:00 +19°C° 0 mm 2 mps 702 mmHg 54%
    19:00 +20°C° 0 mm 1 mps 702 mmHg 56%
    20:00 +19°C° 0 mm 1 mps 703 mmHg 58%
    21:00 +19°C° 0 mm 1 mps 703 mmHg 60%
    22:00 +18°C° 0 mm 1 mps 703 mmHg 62%
    23:00 +18°C° 0 mm 1 mps 703 mmHg 64%

    Day after tomorrow, 21 July, Sunday

    Time Temperature Precipitation Wind Pressure Humidity
    00:00 +18°C° 0 mm 1 mps 703 mmHg 66%
    01:00 +16°C° 0 mm 1 mps 702 mmHg 68%
    02:00 +16°C° 0 mm 2 mps 702 mmHg 69%
    03:00 +16°C° 0 mm 2 mps 702 mmHg 70%
    04:00 +15°C° 0 mm 2 mps 702 mmHg 72%
    05:00 +15°C° 0 mm 2 mps 702 mmHg 73%
    06:00 +15°C° 0 mm 2 mps 702 mmHg 74%
    07:00 +16°C° 0 mm 2 mps 702 mmHg 70%
    08:00 +17°C° 0 mm 2 mps 703 mmHg 66%
    09:00 +18°C° 0 mm 3 mps 703 mmHg 62%
    10:00 +19°C° 0 mm 3 mps 703 mmHg 57%
    11:00 +21°C° 0 mm 3 mps 703 mmHg 52%
    12:00 +24°C° 0 mm 3 mps 703 mmHg 47%
    13:00 +24°C° 0 mm 3 mps 703 mmHg 47%
    14:00 +24°C° 0 mm 3 mps 702 mmHg 47%
    15:00 +24°C° 0 mm 3 mps 702 mmHg 47%
    16:00 +22°C° 0 mm 3 mps 702 mmHg 52%
    17:00 +21°C° 0 mm 3 mps 701 mmHg 57%
    18:00 +20°C° 0 mm 3 mps 701 mmHg 62%
    19:00 +19°C° 0 mm 3 mps 702 mmHg 63%
    20:00 +19°C° 0 mm 3 mps 702 mmHg 64%
    21:00 +18°C° 0 mm 3 mps 702 mmHg 65%
    22:00 +18°C° 0 mm 3 mps 702 mmHg 67%
    23:00 +18°C° 0 mm 3 mps 702 mmHg 68%

    22 July, Monday

    Time Temperature Precipitation Wind Pressure Humidity
    00:00 +17°C° 0 mm 3 mps 702 mmHg 69%
    01:00 +17°C° 0 mm 3 mps 701 mmHg 70%
    02:00 +17°C° 0 mm 3 mps 701 mmHg 71%
    03:00 +17°C° 0 mm 3 mps 700 mmHg 72%
    04:00 +16°C° 0 mm 3 mps 700 mmHg 72%
    05:00 +16°C° 0 mm 3 mps 701 mmHg 73%
    06:00 +16°C° 0 mm 3 mps 701 mmHg 73%
    07:00 +17°C° 0 mm 3 mps 701 mmHg 69%
    08:00 +18°C° 0 mm 4 mps 702 mmHg 65%
    09:00 +19°C° 0 mm 4 mps 702 mmHg 61%
    10:00 +20°C° 0 mm 4 mps 702 mmHg 56%
    11:00 +22°C° 0 mm 4 mps 702 mmHg 51%
    12:00 +25°C° 0 mm 4 mps 703 mmHg 46%
    13:00 +25°C° 0 mm 4 mps 702 mmHg 46%
    14:00 +26°C° 0 mm 4 mps 702 mmHg 46%
    15:00 +26°C° 0 mm 4 mps 701 mmHg 45%
    16:00 +25°C° 0 mm 3 mps 701 mmHg 50%
    17:00 +24°C° 0 mm 3 mps 701 mmHg 55%
    18:00 +21°C° 0 mm 2 mps 701 mmHg 61%
    19:00 +21°C° 0 mm 2 mps 701 mmHg 62%
    20:00 +20°C° 0 mm 3 mps 702 mmHg 63%
    21:00 +20°C° 0 mm 3 mps 702 mmHg 65%
    22:00 +19°C° 0 mm 2 mps 702 mmHg 65%
    23:00 +19°C° 0 mm 2 mps 702 mmHg 66%

    23 July, Tuesday

    Time Temperature Precipitation Wind Pressure Humidity
    00:00 +19°C° 0 mm 2 mps 701 mmHg 66%
    01:00 +18°C° 0 mm 2 mps 701 mmHg 68%
    02:00 +18°C° 0 mm 2 mps 701 mmHg 69%
    03:00 +17°C° 0 mm 2 mps 701 mmHg 70%
    04:00 +17°C° 0 mm 2 mps 701 mmHg 72%
    05:00 +17°C° 0 mm 2 mps 701 mmHg 73%
    06:00 +17°C° 0 mm 2 mps 701 mmHg 74%
    07:00 +18°C° 0 mm 2 mps 701 mmHg 70%
    08:00 +19°C° 0 mm 3 mps 702 mmHg 66%
    09:00 +20°C° 0 mm 3 mps 702 mmHg 61%
    10:00 +22°C° 0 mm 3 mps 702 mmHg 56%
    11:00 +24°C° 0 mm 3 mps 702 mmHg 51%
    12:00 +26°C° 0 mm 3 mps 702 mmHg 46%
    13:00 +26°C° 0 mm 3 mps 702 mmHg 45%
    14:00 +27°C° 0 mm 3 mps 702 mmHg 44%
    15:00 +27°C° 0 mm 3 mps 701 mmHg 44%
    16:00 +26°C° 0 mm 3 mps 701 mmHg 48%
    17:00 +25°C° 0 mm 2 mps 701 mmHg 53%
    18:00 +23°C° 0 mm 1 mps 701 mmHg 57%
    19:00 +23°C° 0 mm 1 mps 701 mmHg 60%
    20:00 +22°C° 0 mm 1 mps 701 mmHg 62%
    21:00 +21°C° 0 mm 1 mps 701 mmHg 65%
    22:00 +21°C° 0 mm 1 mps 701 mmHg 66%
    23:00 +20°C° 0 mm 1 mps 701 mmHg 68%

    24 July, Wednesday

    Time Temperature Precipitation Wind Pressure Humidity
    00:00 +20°C° 0 mm 1 mps 701 mmHg 69%
    01:00 +19°C° 0 mm 1 mps 701 mmHg 69%
    02:00 +19°C° 0 mm 1 mps 701 mmHg 70%
    03:00 +19°C° 0 mm 1 mps 701 mmHg 70%
    04:00 +19°C° 0 mm 1 mps 701 mmHg 70%
    05:00 +18°C° 0 mm 1 mps 701 mmHg 70%
    06:00 +18°C° 0 mm 1 mps 701 mmHg 70%
    07:00 +19°C° 0 mm 1 mps 701 mmHg 66%
    08:00 +20°C° 0 mm 1 mps 701 mmHg 61%
    09:00 +21°C° 0 mm 2 mps 702 mmHg 57%
    10:00 +23°C° 0 mm 2 mps 702 mmHg 51%
    11:00 +25°C° 0 mm 2 mps 702 mmHg 45%
    12:00 +27°C° 0 mm 1 mps 702 mmHg 39%
    13:00 +27°C° 0 mm 1 mps 701 mmHg 38%
    14:00 +28°C° 0 mm 1 mps 701 mmHg 36%
    15:00 +28°C° 0 mm 1 mps 701 mmHg 35%
    16:00 +27°C° 0 mm 1 mps 701 mmHg 42%
    17:00 +25°C° 0 mm 1 mps 701 mmHg 48%
    18:00 +23°C° 0 mm 1 mps 701 mmHg 55%
    19:00 +23°C° 0 mm 1 mps 702 mmHg 57%
    20:00 +22°C° 0 mm 1 mps 702 mmHg 60%
    21:00 +21°C° 0 mm 1 mps 702 mmHg 62%
    22:00 +21°C° 0 mm 1 mps 702 mmHg 64%
    23:00 +20°C° 0 mm 1 mps 702 mmHg 66%
    Show more